Location: Newark
(44.3681°N, 100.3364°W)
Time: 12:37:23
(UTC+00:00)

Explorer 7 - Pass Details

Date: 18 February 2020
Orbit: 485 x 679 km, 50.3° (Epoch: 05 April)

Event Time Altitude Azimuth Distance (km) Brightness Sun altitude
Rises 03:32:00 0° 285° (WNW) 2,630 11.3 -35.8°
Enters shadow 03:34:30 - 266° (W) 1,866 10.2 -36.2°
Reaches altitude 10° 03:35:12 10° 258° (WSW) 1,706 - -36.4°
Maximum altitude 03:37:03 13° 229° (SW) 1,497 - -36.7°
Drops below altitude 10° 03:38:54 10° 199° (SSW) 1,673 - -37.0°
Sets 03:41:58 0° 171° (S) 2,534 - -37.5°
